[Date Prev][Date Next][Thread Prev][Thread Next] - [Date Index][Thread Index][Author Index]
2 Line ISS Keps 12-29
- Subject: [sarex] 2 Line ISS Keps 12-29
- From: "Dave Larsen PhD" <doc@xxxxxxxxxxx>
- Date: Tue, 28 Dec 2004 18:11:48 -0800
ISS
1 25544U 98067A 04363.98219829 .00010425 00000-0 82617-4 0 4674
2 25544 51.6412 51.2664 0003644 141.8773 279.5921 15.71971130348929
----
Via the sarex mailing list at AMSAT.ORG courtesy of AMSAT-NA.
To unsubscribe, send "unsubscribe sarex" to Majordomo@amsat.org
AMSAT Home